Tracking 19969 objects as of 13-Nov-2019
Live streaming from Space Station
objects crossing your sky now
Track the group of recently launched Starlink satellites

SL-14 DEB

Track SL-14 DEB now!
10-day predictions


NORAD ID: 26003
Int'l Code: 1991-068N
Perigee: 1,295.4 km
Apogee: 1,550.4 km
Inclination: 82.7 °
Period: 114.1 minutes
Semi major axis: 7793 km
RCS: 0.0354 m2 (small)
Launch date: September 28, 1991
Source: Commonwealth of Independent States (former USSR) (CIS)
Launch site: PLESETSK MISSILE AND SPACE COMPLEX (PKMTR)

Note: This is SATELLITE DEBRIS
aabbcc
Your satellite tracking list
Your tracking list is empty




NASA's NSSDC Master Catalog

Two Line Element Set (TLE):
1 26003U 91068N   19315.75726156 +.00001830 +00000-0 +97289-2 0  9992
2 26003 082.7037 237.9556 0163585 038.7282 350.0846 12.61733817920012
Source of the keplerian elements: AFSPC